VIASAT-2 (42740 NORAD) Tracking and Keplerian Element Data

This shows tracking and keplerian element data for the satellite.

Feedback or suggestion? Click here.




ElementValue
Catalog42740
NameVIASAT-2
Epoch Orbit573
Epoch Day351.95384424
Epoch Year2018
RAAN349.55
Inclination0.0227
Eccentricity3.12E-05
Argument of Perigee253.3908
Mean Anonmoly117.056
Mean Motion1.00269734
Decay Rate-2.49E-06
L11 42740U 17029A 18351.95384424 -.00000249 00000-0 00000+0 0 9998
L22 42740 0.0227 349.5500 0000312 253.3908 117.0560 1.00269734 5739

Live tracking and technical data element details for VIASAT-2 (NORAD 42740). VIASAT-2 can be tracked NOW for your location showing map with azimuth and elevation plus other details from your city location.

Track the satellite on the map from your city or location and see movement details for azimuth, elevation, latitude, longitude, range, height, and movement on the map or in text.







IsCatalogInMostPopularTable: catalog: 42740, numindb: 107
Update: records affected: 1



GetName: 42740 VIASAT-2

Hit Count: updated at: Wed, 19 Dec 2018 15:28:30 GMT